TimeMST,TemperatureF,Dew PointF,Humidity,Sea Level PressureIn,VisibilityMPH,Wind Direction,Wind SpeedMPH,Gust SpeedMPH,PrecipitationIn,Events,Conditions,WindDirDegrees,DateUTC
12:16 AM,-2.2,-11.2,66,30.26,10.0,North,4.6,-,N/A,,Clear,360,2012-12-09 07:16:00
12:55 AM,-2.2,-9.4,71,30.27,10.0,NNW,11.5,-,N/A,,Clear,340,2012-12-09 07:55:00
1:15 AM,-4.0,-9.4,78,30.28,10.0,NNW,11.5,-,N/A,,Clear,330,2012-12-09 08:15:00
1:35 AM,-2.2,-5.8,85,30.28,10.0,NW,11.5,-,N/A,,Clear,320,2012-12-09 08:35:00
1:55 AM,-2.2,-7.6,78,30.29,10.0,NW,11.5,-,N/A,,Clear,320,2012-12-09 08:55:00
2:15 AM,-2.2,-7.6,78,30.30,10.0,NW,12.7,-,N/A,,Clear,320,2012-12-09 09:15:00
2:35 AM,-2.2,-7.6,78,30.30,10.0,NW,12.7,-,N/A,,Clear,320,2012-12-09 09:35:00
2:55 AM,-2.2,-5.8,85,30.30,10.0,NNW,11.5,-,N/A,,Clear,330,2012-12-09 09:55:00
3:35 AM,-2.2,-9.4,71,30.32,10.0,Calm,Calm,-,N/A,,Clear,0,2012-12-09 10:35:00
3:55 AM,-4.0,-7.6,85,30.32,10.0,Calm,Calm,-,N/A,,Clear,0,2012-12-09 10:55:00
4:15 AM,-2.2,-5.8,85,30.32,10.0,Calm,Calm,-,N/A,,Clear,0,2012-12-09 11:15:00
4:35 AM,-5.8,-16.6,60,30.33,10.0,Calm,Calm,-,N/A,,Clear,0,2012-12-09 11:35:00
5:15 AM,-7.6,-14.8,71,30.34,10.0,SSW,4.6,-,N/A,,Clear,200,2012-12-09 12:15:00
5:35 AM,-7.6,-9.4,92,30.33,10.0,South,4.6,-,N/A,,Clear,190,2012-12-09 12:35:00
5:55 AM,-5.8,-11.2,77,30.33,10.0,SSW,5.8,-,N/A,,Clear,200,2012-12-09 12:55:00
6:15 AM,-9.4,-16.6,71,30.34,10.0,SW,5.8,-,N/A,,Clear,230,2012-12-09 13:15:00
6:35 AM,-9.4,-16.6,71,30.34,10.0,SW,5.8,-,N/A,,Partly Cloudy,230,2012-12-09 13:35:00
6:55 AM,-7.6,-7.6,100,30.35,10.0,SW,6.9,-,N/A,,Mostly Cloudy,230,2012-12-09 13:55:00
7:15 AM,-7.6,-14.8,71,30.35,10.0,WNW,3.5,-,N/A,,Overcast,290,2012-12-09 14:15:00
7:35 AM,-5.8,-9.4,84,30.37,10.0,NNW,4.6,-,N/A,,Overcast,340,2012-12-09 14:35:00
7:55 AM,-5.8,-11.2,77,30.36,10.0,SSE,3.5,-,N/A,,Overcast,160,2012-12-09 14:55:00
8:35 AM,-5.8,-9999,N/A,30.37,10.0,SSE,4.6,-,N/A,,Overcast,150,2012-12-09 15:35:00
8:55 AM,-5.8,-9.4,84,30.37,10.0,SSE,4.6,-,N/A,,Overcast,160,2012-12-09 15:55:00
9:35 AM,-4.0,-5.8,92,30.37,10.0,South,6.9,-,N/A,,Clear,180,2012-12-09 16:35:00
10:15 AM,-2.2,-4.0,92,30.37,10.0,South,6.9,-,N/A,,Partly Cloudy,180,2012-12-09 17:15:00
10:35 AM,-0.4,-5.8,78,30.36,10.0,South,6.9,-,N/A,,Scattered Clouds,170,2012-12-09 17:35:00
10:55 AM,-0.4,-5.8,78,30.34,10.0,South,8.1,-,N/A,,Clear,170,2012-12-09 17:55:00
11:15 AM,1.4,-2.2,85,30.32,10.0,South,9.2,-,N/A,,Clear,180,2012-12-09 18:15:00
11:35 AM,1.4,-2.2,85,30.31,10.0,South,10.4,-,N/A,,Clear,190,2012-12-09 18:35:00
11:55 AM,3.2,1.4,92,30.30,10.0,South,10.4,-,N/A,,Clear,190,2012-12-09 18:55:00
12:35 PM,6.8,1.4,79,30.27,10.0,South,10.4,-,N/A,,Clear,180,2012-12-09 19:35:00
12:55 PM,6.8,1.4,79,30.26,10.0,South,12.7,-,N/A,,Clear,180,2012-12-09 19:55:00
1:15 PM,8.6,1.4,73,30.24,10.0,South,8.1,-,N/A,,Clear,180,2012-12-09 20:15:00
1:35 PM,8.6,3.2,79,30.22,10.0,South,8.1,-,N/A,,Clear,170,2012-12-09 20:35:00
2:15 PM,10.4,1.4,67,30.21,10.0,South,10.4,-,N/A,,Clear,170,2012-12-09 21:15:00
2:35 PM,10.4,3.2,73,30.20,10.0,South,10.4,-,N/A,,Scattered Clouds,180,2012-12-09 21:35:00
3:15 PM,10.4,1.4,67,30.17,10.0,South,8.1,-,N/A,,Clear,170,2012-12-09 22:15:00
3:35 PM,10.4,1.4,67,30.16,10.0,South,10.4,-,N/A,,Clear,180,2012-12-09 22:35:00
3:55 PM,10.4,1.4,67,30.15,10.0,South,10.4,-,N/A,,Clear,180,2012-12-09 22:55:00
4:15 PM,8.6,-0.4,67,30.13,10.0,South,10.4,-,N/A,,Clear,190,2012-12-09 23:15:00
4:35 PM,8.6,1.4,73,30.12,10.0,South,10.4,-,N/A,,Clear,190,2012-12-09 23:35:00
4:55 PM,8.6,1.4,73,30.11,10.0,South,8.1,-,N/A,,Clear,180,2012-12-09 23:55:00
5:15 PM,6.8,-0.4,72,30.10,10.0,South,8.1,-,N/A,,Clear,180,2012-12-10 00:15:00
6:35 PM,6.8,-0.4,72,30.04,10.0,South,13.8,-,N/A,,Clear,180,2012-12-10 01:35:00
6:55 PM,6.8,-0.4,72,30.02,10.0,South,13.8,-,N/A,,Clear,180,2012-12-10 01:55:00
7:15 PM,6.8,-0.4,72,30.00,10.0,South,10.4,-,N/A,,Clear,170,2012-12-10 02:15:00
7:35 PM,6.8,-0.4,72,30.00,10.0,South,12.7,-,N/A,,Clear,170,2012-12-10 02:35:00
7:55 PM,6.8,-0.4,72,29.98,10.0,South,13.8,-,N/A,,Clear,180,2012-12-10 02:55:00
8:15 PM,5.0,-2.2,72,29.98,10.0,SSW,6.9,-,N/A,,Clear,210,2012-12-10 03:15:00
8:36 PM,5.0,1.4,85,29.96,10.0,South,10.4,-,N/A,,Clear,180,2012-12-10 03:36:00
8:55 PM,6.8,-0.4,72,29.95,10.0,South,11.5,-,N/A,,Clear,190,2012-12-10 03:55:00
9:35 PM,6.8,-2.2,67,29.92,10.0,SSW,5.8,-,N/A,,Clear,200,2012-12-10 04:35:00
9:55 PM,6.8,1.4,79,29.90,10.0,South,11.5,-,N/A,,Clear,190,2012-12-10 04:55:00
10:15 PM,8.6,1.4,73,29.88,10.0,South,15.0,-,N/A,,Clear,190,2012-12-10 05:15:00
10:35 PM,8.6,1.4,73,29.87,10.0,South,11.5,-,N/A,,Scattered Clouds,190,2012-12-10 05:35:00
10:55 PM,8.6,3.2,79,29.87,10.0,SSW,10.4,-,N/A,,Mostly Cloudy,200,2012-12-10 05:55:00
11:15 PM,10.4,5.0,79,29.85,10.0,SSW,12.7,-,N/A,,Scattered Clouds,200,2012-12-10 06:15:00
11:35 PM,10.4,3.2,73,29.84,10.0,SSW,13.8,-,N/A,,Mostly Cloudy,200,2012-12-10 06:35:00
11:55 PM,12.2,5.0,73,29.82,10.0,SSW,16.1,-,N/A,,Mostly Cloudy,200,2012-12-10 06:55:00